Time,TemperatureF,DewpointF,PressureIn,WindDirection,WindDirectionDegrees,WindSpeedMPH,WindSpeedGustMPH,Humidity,HourlyPrecipIn,Conditions,Clouds,dailyrainin,SoftwareType,DateUTC
2013-04-16 00:02:00,46.6,27.9,30.07,NE,51,15.0,34.0,48,0.00,,,0.00,meteohub,2013-04-16 05:02:00,
2013-04-16 00:07:00,46.2,27.7,30.08,ENE,75,22.0,36.0,48,0.00,,,0.00,meteohub,2013-04-16 05:07:00,
2013-04-16 00:12:00,46.0,27.5,30.07,ENE,75,22.0,36.0,48,0.00,,,0.00,meteohub,2013-04-16 05:12:00,
2013-04-16 00:17:00,45.9,27.9,30.08,ENE,65,18.0,36.0,49,0.00,,,0.00,meteohub,2013-04-16 05:17:00,
2013-04-16 00:22:00,45.9,27.9,30.08,East,82,17.0,36.0,49,0.00,,,0.00,meteohub,2013-04-16 05:22:00,
2013-04-16 00:27:00,45.7,28.0,30.08,ENE,68,21.0,36.0,50,0.00,,,0.00,meteohub,2013-04-16 05:27:00,
2013-04-16 00:32:00,45.3,27.9,30.07,ENE,60,21.0,29.0,50,0.00,,,0.00,meteohub,2013-04-16 05:32:00,
2013-04-16 00:37:00,45.3,28.2,30.08,ENE,63,18.0,31.0,51,0.00,,,0.00,meteohub,2013-04-16 05:37:00,
2013-04-16 00:42:00,45.1,28.0,30.08,ENE,60,22.0,31.0,51,0.00,,,0.00,meteohub,2013-04-16 05:42:00,
2013-04-16 00:47:00,45.1,28.6,30.08,NE,47,18.0,31.0,52,0.00,,,0.00,meteohub,2013-04-16 05:47:00,
2013-04-16 00:52:00,45.0,28.4,30.08,NE,44,15.0,31.0,52,0.00,,,0.00,meteohub,2013-04-16 05:52:00,
2013-04-16 00:57:00,45.0,28.4,30.08,ENE,60,22.0,34.0,52,0.00,,,0.00,meteohub,2013-04-16 05:57:00,
2013-04-16 01:02:00,44.8,28.2,30.09,ENE,68,27.0,34.0,52,0.00,,,0.00,meteohub,2013-04-16 06:02:00,
2013-04-16 01:07:00,44.8,28.8,30.08,ENE,63,17.0,34.0,53,0.00,,,0.00,meteohub,2013-04-16 06:07:00,
2013-04-16 01:12:00,44.6,28.6,30.08,ENE,63,12.0,31.0,53,0.00,,,0.00,meteohub,2013-04-16 06:12:00,
2013-04-16 01:17:00,44.4,28.4,30.08,ENE,72,25.0,31.0,53,0.00,,,0.00,meteohub,2013-04-16 06:17:00,
2013-04-16 01:22:00,44.4,28.8,30.09,NE,47,10.0,31.0,54,0.00,,,0.00,meteohub,2013-04-16 06:22:00,
2013-04-16 01:27:00,44.4,28.8,30.09,East,84,15.0,29.0,54,0.00,,,0.00,meteohub,2013-04-16 06:27:00,
2013-04-16 01:32:00,44.2,29.1,30.08,NE,56,13.0,29.0,55,0.00,,,0.00,meteohub,2013-04-16 06:32:00,
2013-04-16 01:37:00,44.2,29.1,30.08,NE,54,13.0,28.0,55,0.00,,,0.00,meteohub,2013-04-16 06:37:00,
2013-04-16 01:42:00,44.4,29.3,30.09,ENE,60,15.0,23.0,55,0.00,,,0.00,meteohub,2013-04-16 06:42:00,
2013-04-16 01:47:00,44.4,29.3,30.09,NE,53,14.0,23.0,55,0.00,,,0.00,meteohub,2013-04-16 06:47:00,
2013-04-16 01:52:00,44.2,29.1,30.09,NE,56,18.0,23.0,55,0.00,,,0.00,meteohub,2013-04-16 06:52:00,
2013-04-16 01:57:00,44.2,29.5,30.09,ENE,59,12.0,23.0,56,0.00,,,0.00,meteohub,2013-04-16 06:57:00,
2013-04-16 02:02:00,44.2,29.5,30.09,ENE,65,29.0,29.0,56,0.00,,,0.00,meteohub,2013-04-16 07:02:00,
2013-04-16 02:07:00,44.2,29.5,30.09,NE,47,23.0,29.0,56,0.00,,,0.00,meteohub,2013-04-16 07:07:00,
2013-04-16 02:13:00,44.2,29.5,30.09,ENE,65,24.0,29.0,56,0.00,,,0.00,meteohub,2013-04-16 07:13:00,
2013-04-16 02:18:00,44.2,29.5,30.09,ENE,70,14.0,29.0,56,0.00,,,0.00,meteohub,2013-04-16 07:18:00,
2013-04-16 02:23:00,44.2,29.5,30.09,ENE,72,16.0,28.0,56,0.00,,,0.00,meteohub,2013-04-16 07:23:00,
2013-04-16 02:28:00,44.2,29.5,30.09,NE,50,23.0,28.0,56,0.00,,,0.00,meteohub,2013-04-16 07:28:00,
2013-04-16 02:33:00,44.2,29.5,30.09,ENE,60,23.0,29.0,56,0.00,,,0.00,meteohub,2013-04-16 07:33:00,
2013-04-16 02:38:00,44.2,29.5,30.09,ENE,66,18.0,29.0,56,0.00,,,0.00,meteohub,2013-04-16 07:38:00,
2013-04-16 02:43:00,44.2,29.5,30.10,ENE,63,11.0,29.0,56,0.00,,,0.00,meteohub,2013-04-16 07:43:00,
2013-04-16 02:48:00,44.2,30.0,30.11,NE,55,13.0,28.0,57,0.00,,,0.00,meteohub,2013-04-16 07:48:00,
2013-04-16 02:53:00,44.1,29.8,30.09,ENE,72,18.0,27.0,57,0.00,,,0.00,meteohub,2013-04-16 07:53:00,
2013-04-16 02:58:00,44.1,29.8,30.10,NE,54,14.0,27.0,57,0.00,,,0.00,meteohub,2013-04-16 07:58:00,
2013-04-16 03:03:00,44.1,29.8,30.10,NE,54,22.0,27.0,57,0.00,,,0.00,meteohub,2013-04-16 08:03:00,
2013-04-16 03:08:00,44.1,29.8,30.10,NE,51,15.0,32.0,57,0.00,,,0.00,meteohub,2013-04-16 08:08:00,
2013-04-16 03:13:00,44.1,29.8,30.09,East,86,13.0,32.0,57,0.00,,,0.00,meteohub,2013-04-16 08:13:00,
2013-04-16 03:18:00,44.1,29.8,30.09,NE,49,15.0,32.0,57,0.00,,,0.00,meteohub,2013-04-16 08:18:00,
2013-04-16 03:23:00,43.9,29.7,30.10,ENE,59,21.0,32.0,57,0.00,,,0.00,meteohub,2013-04-16 08:23:00,
2013-04-16 03:28:00,43.9,29.7,30.10,ENE,75,19.0,32.0,57,0.00,,,0.00,meteohub,2013-04-16 08:28:00,
2013-04-16 03:33:00,43.9,30.0,30.10,ENE,70,20.0,31.0,58,0.00,,,0.00,meteohub,2013-04-16 08:33:00,
2013-04-16 03:38:00,43.9,30.0,30.10,ENE,57,19.0,31.0,58,0.00,,,0.00,meteohub,2013-04-16 08:38:00,
2013-04-16 03:43:00,43.9,30.0,30.11,ENE,77,13.0,31.0,58,0.00,,,0.00,meteohub,2013-04-16 08:43:00,
2013-04-16 03:48:00,43.9,30.0,30.11,ENE,64,23.0,26.0,58,0.00,,,0.00,meteohub,2013-04-16 08:48:00,
2013-04-16 03:53:00,43.9,30.0,30.11,NE,44,15.0,25.0,58,0.00,,,0.00,meteohub,2013-04-16 08:53:00,
2013-04-16 03:58:00,43.7,29.8,30.11,NE,54,22.0,28.0,58,0.00,,,0.00,meteohub,2013-04-16 08:58:00,
2013-04-16 04:03:00,43.7,29.8,30.11,NE,51,20.0,28.0,58,0.00,,,0.00,meteohub,2013-04-16 09:03:00,
2013-04-16 04:08:00,43.5,29.7,30.11,East,91,19.0,28.0,58,0.00,,,0.00,meteohub,2013-04-16 09:08:00,
2013-04-16 04:13:00,43.5,29.7,30.10,ENE,63,29.0,29.0,58,0.00,,,0.00,meteohub,2013-04-16 09:13:00,
2013-04-16 04:18:00,43.7,29.8,30.12,ENE,63,20.0,30.0,58,0.00,,,0.00,meteohub,2013-04-16 09:18:00,
2013-04-16 04:23:00,43.7,29.8,30.12,East,80,14.0,30.0,58,0.00,,,0.00,meteohub,2013-04-16 09:23:00,
2013-04-16 04:28:00,43.5,29.3,30.12,NE,50,23.0,30.0,57,0.00,,,0.00,meteohub,2013-04-16 09:28:00,
2013-04-16 04:33:00,43.5,29.3,30.12,NE,51,17.0,34.0,57,0.00,,,0.00,meteohub,2013-04-16 09:33:00,
2013-04-16 04:38:00,43.7,29.5,30.12,NE,54,18.0,34.0,57,0.00,,,0.00,meteohub,2013-04-16 09:38:00,
2013-04-16 04:43:00,43.7,29.5,30.12,NE,50,14.0,34.0,57,0.00,,,0.00,meteohub,2013-04-16 09:43:00,
2013-04-16 04:48:00,43.7,29.1,30.12,ENE,63,27.0,29.0,56,0.00,,,0.00,meteohub,2013-04-16 09:48:00,
2013-04-16 04:53:00,43.7,29.1,30.13,NE,51,19.0,33.0,56,0.00,,,0.00,meteohub,2013-04-16 09:53:00,
2013-04-16 04:58:00,43.9,29.1,30.12,ENE,57,21.0,33.0,56,0.00,,,0.00,meteohub,2013-04-16 09:58:00,
2013-04-16 05:03:00,43.7,29.5,30.12,ENE,65,25.0,33.0,57,0.00,,,0.00,meteohub,2013-04-16 10:03:00,
2013-04-16 05:08:00,43.5,29.7,30.12,ENE,63,15.0,33.0,58,0.00,,,0.00,meteohub,2013-04-16 10:08:00,
2013-04-16 05:13:00,43.5,29.7,30.12,East,84,12.0,33.0,58,0.00,,,0.00,meteohub,2013-04-16 10:13:00,
2013-04-16 05:18:00,43.5,29.7,30.12,NE,47,16.0,33.0,58,0.00,,,0.00,meteohub,2013-04-16 10:18:00,
2013-04-16 05:23:00,43.5,29.7,30.14,ENE,57,32.0,32.0,58,0.00,,,0.00,meteohub,2013-04-16 10:23:00,
2013-04-16 05:28:00,43.5,30.2,30.15,NE,50,18.0,32.0,59,0.00,,,0.00,meteohub,2013-04-16 10:28:00,
2013-04-16 05:33:00,43.5,30.2,30.16,NE,46,16.0,32.0,59,0.00,,,0.00,meteohub,2013-04-16 10:33:00,
2013-04-16 05:38:00,43.5,30.2,30.16,NE,51,13.0,32.0,59,0.00,,,0.00,meteohub,2013-04-16 10:38:00,
2013-04-16 05:43:00,43.5,30.6,30.16,NE,43,20.0,25.0,60,0.00,,,0.00,meteohub,2013-04-16 10:43:00,
2013-04-16 05:48:00,43.3,30.4,30.15,NE,37,23.0,25.0,60,0.00,,,0.00,meteohub,2013-04-16 10:48:00,
2013-04-16 05:53:00,43.3,30.4,30.15,NE,50,21.0,29.0,60,0.00,,,0.00,meteohub,2013-04-16 10:53:00,
2013-04-16 05:58:00,43.3,30.7,30.14,NE,54,16.0,29.0,61,0.00,,,0.00,meteohub,2013-04-16 10:58:00,
2013-04-16 06:03:00,43.3,30.7,30.15,East,82,20.0,29.0,61,0.00,,,0.00,meteohub,2013-04-16 11:03:00,
2013-04-16 06:09:00,43.3,30.7,30.15,NE,55,27.0,32.0,61,0.00,,,0.00,meteohub,2013-04-16 11:09:00,
2013-04-16 06:14:00,43.3,31.3,30.16,ENE,65,26.0,33.0,62,0.00,,,0.00,meteohub,2013-04-16 11:14:00,
2013-04-16 06:19:00,43.3,31.3,30.16,NE,50,19.0,33.0,62,0.00,,,0.00,meteohub,2013-04-16 11:19:00,
2013-04-16 06:24:00,43.3,31.6,30.17,NE,54,21.0,33.0,63,0.00,,,0.00,meteohub,2013-04-16 11:24:00,
2013-04-16 06:29:00,43.3,31.6,30.17,NE,37,14.0,33.0,63,0.00,,,0.00,meteohub,2013-04-16 11:29:00,
2013-04-16 06:34:00,43.2,31.8,30.17,NE,54,17.0,28.0,64,0.00,,,0.00,meteohub,2013-04-16 11:34:00,
2013-04-16 06:39:00,43.2,31.8,30.17,ENE,70,28.0,28.0,64,0.00,,,0.00,meteohub,2013-04-16 11:39:00,
2013-04-16 06:44:00,43.0,31.6,30.17,NE,46,24.0,29.0,64,0.00,,,0.00,meteohub,2013-04-16 11:44:00,
2013-04-16 06:49:00,43.2,32.2,30.18,ENE,65,20.0,34.0,65,0.00,,,0.00,meteohub,2013-04-16 11:49:00,
2013-04-16 06:54:00,43.2,32.2,30.17,ENE,58,11.0,34.0,65,0.00,,,0.00,meteohub,2013-04-16 11:54:00,
2013-04-16 06:59:00,43.2,32.2,30.17,ENE,58,20.0,34.0,65,0.00,,,0.00,meteohub,2013-04-16 11:59:00,
2013-04-16 07:04:00,43.0,32.0,30.18,ENE,74,23.0,29.0,65,0.00,,,0.00,meteohub,2013-04-16 12:04:00,
2013-04-16 07:09:00,43.0,32.0,30.18,ENE,71,17.0,36.0,65,0.00,,,0.00,meteohub,2013-04-16 12:09:00,
2013-04-16 07:14:00,43.0,32.0,30.19,ENE,72,18.0,36.0,65,0.00,,,0.00,meteohub,2013-04-16 12:14:00,
2013-04-16 07:19:00,43.0,32.0,30.19,ENE,57,16.0,36.0,65,0.00,,,0.00,meteohub,2013-04-16 12:19:00,
2013-04-16 07:24:00,43.0,32.4,30.19,ENE,68,18.0,33.0,66,0.00,,,0.00,meteohub,2013-04-16 12:24:00,
2013-04-16 07:29:00,43.0,32.4,30.18,ENE,59,16.0,30.0,66,0.00,,,0.00,meteohub,2013-04-16 12:29:00,
2013-04-16 07:34:00,43.0,32.4,30.18,NE,37,19.0,30.0,66,0.00,,,0.00,meteohub,2013-04-16 12:34:00,
2013-04-16 07:39:00,43.0,32.4,30.19,NE,46,10.0,34.0,66,0.00,,,0.00,meteohub,2013-04-16 12:39:00,
2013-04-16 07:44:00,43.2,32.5,30.19,ENE,63,21.0,34.0,66,0.00,,,0.00,meteohub,2013-04-16 12:44:00,
2013-04-16 07:49:00,43.0,32.4,30.19,NE,55,15.0,31.0,66,0.00,,,0.00,meteohub,2013-04-16 12:49:00,
2013-04-16 07:54:00,43.0,32.0,30.19,ENE,70,21.0,29.0,65,0.00,,,0.00,meteohub,2013-04-16 12:54:00,
2013-04-16 07:59:00,43.2,32.5,30.19,ENE,57,22.0,35.0,66,0.00,,,0.00,meteohub,2013-04-16 12:59:00,
2013-04-16 08:04:00,43.0,32.4,30.19,NNE,32,14.0,35.0,66,0.00,,,0.00,meteohub,2013-04-16 13:04:00,
2013-04-16 08:09:00,43.0,32.4,30.19,ENE,72,15.0,35.0,66,0.00,,,0.00,meteohub,2013-04-16 13:09:00,
2013-04-16 08:14:00,43.0,32.4,30.20,NE,40,22.0,30.0,66,0.00,,,0.00,meteohub,2013-04-16 13:14:00,
2013-04-16 08:19:00,43.0,32.4,30.20,ENE,65,23.0,35.0,66,0.00,,,0.00,meteohub,2013-04-16 13:19:00,
2013-04-16 08:24:00,43.2,32.5,30.20,ENE,66,19.0,35.0,66,0.00,,,0.00,meteohub,2013-04-16 13:24:00,
2013-04-16 08:29:00,43.2,32.5,30.20,ENE,59,13.0,35.0,66,0.00,,,0.00,meteohub,2013-04-16 13:29:00,
2013-04-16 08:34:00,43.2,32.5,30.20,NE,45,18.0,31.0,66,0.00,,,0.00,meteohub,2013-04-16 13:34:00,
2013-04-16 08:39:00,43.2,32.5,30.20,ENE,63,24.0,31.0,66,0.00,,,0.00,meteohub,2013-04-16 13:39:00,
2013-04-16 08:44:00,43.2,32.5,30.21,NE,51,21.0,31.0,66,0.00,,,0.00,meteohub,2013-04-16 13:44:00,
2013-04-16 08:49:00,43.2,32.9,30.21,ENE,63,18.0,31.0,67,0.00,,,0.00,meteohub,2013-04-16 13:49:00,
2013-04-16 08:54:00,43.2,32.5,30.21,ENE,57,17.0,31.0,66,0.00,,,0.00,meteohub,2013-04-16 13:54:00,
2013-04-16 08:59:00,43.0,32.4,30.21,ENE,70,29.0,33.0,66,0.00,,,0.00,meteohub,2013-04-16 13:59:00,
2013-04-16 09:04:00,43.0,32.7,30.21,ENE,63,21.0,33.0,67,0.00,,,0.00,meteohub,2013-04-16 14:04:00,
2013-04-16 09:09:00,43.0,32.7,30.22,NE,50,16.0,33.0,67,0.00,,,0.00,meteohub,2013-04-16 14:09:00,
2013-04-16 09:14:00,43.0,32.7,30.22,NE,56,29.0,35.0,67,0.00,,,0.00,meteohub,2013-04-16 14:14:00,
2013-04-16 09:19:00,43.0,33.1,30.22,NE,56,32.0,35.0,68,0.00,,,0.00,meteohub,2013-04-16 14:19:00,
2013-04-16 09:24:00,43.0,33.1,30.22,NE,47,17.0,35.0,68,0.00,,,0.00,meteohub,2013-04-16 14:24:00,
2013-04-16 09:29:00,43.0,33.1,30.22,ENE,65,24.0,34.0,68,0.00,,,0.00,meteohub,2013-04-16 14:29:00,
2013-04-16 09:34:00,43.0,33.1,30.22,ENE,66,21.0,33.0,68,0.00,,,0.00,meteohub,2013-04-16 14:34:00,
2013-04-16 09:39:00,42.8,32.9,30.22,ENE,77,18.0,30.0,68,0.00,,,0.00,meteohub,2013-04-16 14:39:00,
2013-04-16 09:44:00,43.0,33.1,30.22,ENE,72,14.0,33.0,68,0.00,,,0.00,meteohub,2013-04-16 14:44:00,
2013-04-16 09:49:00,43.2,32.9,30.22,East,92,18.0,33.0,67,0.00,,,0.00,meteohub,2013-04-16 14:49:00,
2013-04-16 09:54:00,43.0,33.1,30.22,ENE,72,18.0,33.0,68,0.00,,,0.00,meteohub,2013-04-16 14:54:00,
2013-04-16 09:59:00,43.0,32.7,30.22,ENE,59,23.0,32.0,67,0.00,,,0.00,meteohub,2013-04-16 14:59:00,
2013-04-16 10:04:00,43.0,32.7,30.22,ENE,78,23.0,28.0,67,0.00,,,0.00,meteohub,2013-04-16 15:04:00,
2013-04-16 10:10:00,43.0,32.7,30.22,ENE,63,28.0,28.0,67,0.00,,,0.00,meteohub,2013-04-16 15:10:00,
2013-04-16 10:15:00,43.0,32.7,30.22,NE,56,20.0,32.0,67,0.00,,,0.00,meteohub,2013-04-16 15:15:00,
2013-04-16 10:20:00,43.2,32.9,30.22,NE,52,22.0,32.0,67,0.00,,,0.00,meteohub,2013-04-16 15:20:00,
2013-04-16 10:25:00,43.0,32.7,30.22,ENE,66,22.0,32.0,67,0.00,,,0.00,meteohub,2013-04-16 15:25:00,
2013-04-16 10:30:00,43.0,32.7,30.23,ENE,59,15.0,35.0,67,0.00,,,0.00,meteohub,2013-04-16 15:30:00,
2013-04-16 10:35:00,43.0,32.7,30.23,NE,44,18.0,35.0,67,0.00,,,0.00,meteohub,2013-04-16 15:35:00,
2013-04-16 10:40:00,43.0,33.1,30.23,ENE,68,16.0,35.0,68,0.00,,,0.00,meteohub,2013-04-16 15:40:00,
2013-04-16 10:45:00,42.8,32.9,30.23,ENE,59,20.0,30.0,68,0.00,,,0.00,meteohub,2013-04-16 15:45:00,
2013-04-16 10:50:00,42.8,32.9,30.23,ENE,68,25.0,30.0,68,0.00,,,0.00,meteohub,2013-04-16 15:50:00,
2013-04-16 10:55:00,42.8,32.9,30.23,ENE,71,16.0,36.0,68,0.00,,,0.00,meteohub,2013-04-16 15:55:00,
2013-04-16 11:00:00,43.0,33.1,30.23,ENE,63,14.0,36.0,68,0.00,,,0.00,meteohub,2013-04-16 16:00:00,
2013-04-16 11:05:00,42.8,32.9,30.23,ENE,63,27.0,36.0,68,0.00,,,0.00,meteohub,2013-04-16 16:05:00,
2013-04-16 11:10:00,42.8,32.9,30.23,East,83,17.0,33.0,68,0.00,,,0.00,meteohub,2013-04-16 16:10:00,
2013-04-16 11:15:00,43.0,33.1,30.23,ENE,65,22.0,34.0,68,0.00,,,0.00,meteohub,2013-04-16 16:15:00,
2013-04-16 11:20:00,43.2,33.3,30.23,ENE,70,21.0,34.0,68,0.00,,,0.00,meteohub,2013-04-16 16:20:00,
2013-04-16 11:25:00,43.3,33.4,30.23,NE,37,15.0,34.0,68,0.00,,,0.00,meteohub,2013-04-16 16:25:00,
2013-04-16 11:30:00,43.3,33.8,30.24,NE,54,16.0,29.0,69,0.00,,,0.00,meteohub,2013-04-16 16:30:00,
2013-04-16 11:35:00,43.2,34.0,30.23,NE,51,17.0,29.0,70,0.00,,,0.00,meteohub,2013-04-16 16:35:00,
2013-04-16 11:40:00,43.2,34.0,30.24,ENE,63,14.0,29.0,70,0.00,,,0.00,meteohub,2013-04-16 16:40:00,
2013-04-16 11:45:00,43.2,34.0,30.24,ENE,70,22.0,27.0,70,0.00,,,0.00,meteohub,2013-04-16 16:45:00,
2013-04-16 11:50:00,43.2,34.0,30.24,ENE,71,24.0,27.0,70,0.00,,,0.00,meteohub,2013-04-16 16:50:00,
2013-04-16 11:55:00,43.3,34.2,30.24,ENE,78,20.0,31.0,70,0.00,,,0.00,meteohub,2013-04-16 16:55:00,
2013-04-16 12:00:00,43.3,33.8,30.23,NE,54,23.0,31.0,69,0.00,,,0.00,meteohub,2013-04-16 17:00:00,
2013-04-16 12:05:00,43.3,33.8,30.23,ENE,57,17.0,31.0,69,0.00,,,0.00,meteohub,2013-04-16 17:05:00,
2013-04-16 12:10:00,43.7,33.8,30.23,ENE,57,19.0,31.0,68,0.00,,,0.00,meteohub,2013-04-16 17:10:00,
2013-04-16 12:15:00,43.9,34.0,30.23,ENE,63,17.0,31.0,68,0.00,,,0.00,meteohub,2013-04-16 17:15:00,
2013-04-16 12:20:00,44.1,34.5,30.23,ENE,72,22.0,28.0,69,0.00,,,0.00,meteohub,2013-04-16 17:20:00,
2013-04-16 12:25:00,43.9,34.0,30.24,ENE,77,19.0,28.0,68,0.00,,,0.00,meteohub,2013-04-16 17:25:00,
2013-04-16 12:30:00,44.2,34.7,30.24,ENE,64,17.0,31.0,69,0.00,,,0.00,meteohub,2013-04-16 17:30:00,
2013-04-16 12:35:00,44.4,34.5,30.24,NE,54,21.0,28.0,68,0.00,,,0.00,meteohub,2013-04-16 17:35:00,
2013-04-16 12:40:00,44.2,34.7,30.23,ENE,66,20.0,28.0,69,0.00,,,0.00,meteohub,2013-04-16 17:40:00,
2013-04-16 12:45:00,44.2,34.7,30.23,ENE,72,24.0,28.0,69,0.00,,,0.00,meteohub,2013-04-16 17:45:00,
2013-04-16 12:50:00,44.4,34.9,30.23,ENE,65,21.0,28.0,69,0.00,,,0.00,meteohub,2013-04-16 17:50:00,
2013-04-16 12:55:00,44.4,34.9,30.23,ENE,75,13.0,28.0,69,0.00,,,0.00,meteohub,2013-04-16 17:55:00,
2013-04-16 13:00:00,44.8,34.9,30.23,ENE,75,14.0,28.0,68,0.00,,,0.00,meteohub,2013-04-16 18:00:00,
2013-04-16 13:05:00,44.6,34.7,30.23,ENE,57,26.0,26.0,68,0.00,,,0.00,meteohub,2013-04-16 18:05:00,
2013-04-16 13:10:00,44.4,35.2,30.23,ENE,57,12.0,28.0,70,0.00,,,0.00,meteohub,2013-04-16 18:10:00,
2013-04-16 13:15:00,44.4,34.9,30.23,NE,47,21.0,28.0,69,0.00,,,0.00,meteohub,2013-04-16 18:15:00,
2013-04-16 13:20:00,44.4,35.2,30.23,East,97,16.0,29.0,70,0.00,,,0.00,meteohub,2013-04-16 18:20:00,
2013-04-16 13:25:00,44.8,35.2,30.23,ENE,66,20.0,29.0,69,0.00,,,0.00,meteohub,2013-04-16 18:25:00,
2013-04-16 13:30:00,44.6,35.4,30.22,NE,54,18.0,29.0,70,0.00,,,0.00,meteohub,2013-04-16 18:30:00,
2013-04-16 13:35:00,44.8,35.6,30.22,NE,50,17.0,26.0,70,0.00,,,0.00,meteohub,2013-04-16 18:35:00,
2013-04-16 13:40:00,45.0,35.4,30.22,NE,50,14.0,26.0,69,0.00,,,0.00,meteohub,2013-04-16 18:40:00,
2013-04-16 13:45:00,45.0,35.8,30.22,NE,49,12.0,26.0,70,0.00,,,0.00,meteohub,2013-04-16 18:45:00,
2013-04-16 13:51:00,44.8,35.6,30.22,NE,51,14.0,29.0,70,0.00,,,0.00,meteohub,2013-04-16 18:51:00,
2013-04-16 13:56:00,45.0,35.8,30.22,ENE,72,15.0,29.0,70,0.00,,,0.00,meteohub,2013-04-16 18:56:00,
2013-04-16 14:01:00,45.0,35.8,30.22,ENE,60,17.0,29.0,70,0.00,,,0.00,meteohub,2013-04-16 19:01:00,
2013-04-16 14:06:00,45.5,36.0,30.22,NNE,29,9.0,26.0,69,0.00,,,0.00,meteohub,2013-04-16 19:06:00,
2013-04-16 14:11:00,45.3,35.8,30.22,NE,51,14.0,26.0,69,0.00,,,0.00,meteohub,2013-04-16 19:11:00,
2013-04-16 14:16:00,45.1,35.6,30.21,NE,44,12.0,24.0,69,0.00,,,0.00,meteohub,2013-04-16 19:16:00,
2013-04-16 14:21:00,45.1,36.0,30.21,NE,47,12.0,26.0,70,0.00,,,0.00,meteohub,2013-04-16 19:21:00,
2013-04-16 14:26:00,45.5,36.3,30.22,ENE,60,15.0,26.0,70,0.00,,,0.00,meteohub,2013-04-16 19:26:00,
2013-04-16 14:31:00,46.0,36.5,30.21,ENE,61,13.0,26.0,69,0.00,,,0.00,meteohub,2013-04-16 19:31:00,
2013-04-16 14:36:00,45.7,36.1,30.22,ENE,63,8.0,23.0,69,0.00,,,0.00,meteohub,2013-04-16 19:36:00,
2013-04-16 14:41:00,45.9,36.3,30.21,ENE,61,13.0,23.0,69,0.00,,,0.00,meteohub,2013-04-16 19:41:00,
2013-04-16 14:46:00,46.0,36.5,30.21,ENE,65,8.0,23.0,69,0.00,,,0.00,meteohub,2013-04-16 19:46:00,
2013-04-16 14:51:00,45.9,36.3,30.21,NE,47,15.0,23.0,69,0.00,,,0.00,meteohub,2013-04-16 19:51:00,
2013-04-16 14:56:00,46.0,36.5,30.21,ENE,63,24.0,24.0,69,0.00,,,0.00,meteohub,2013-04-16 19:56:00,
2013-04-16 15:01:00,46.2,36.7,30.20,East,81,19.0,24.0,69,0.00,,,0.00,meteohub,2013-04-16 20:01:00,
2013-04-16 15:06:00,46.6,37.8,30.20,ENE,63,13.0,26.0,71,0.00,,,0.00,meteohub,2013-04-16 20:06:00,
2013-04-16 15:11:00,46.0,37.2,30.20,ENE,65,17.0,26.0,71,0.00,,,0.00,meteohub,2013-04-16 20:11:00,
2013-04-16 15:16:00,46.0,36.9,30.20,East,89,21.0,26.0,70,0.00,,,0.00,meteohub,2013-04-16 20:16:00,
2013-04-16 15:21:00,46.4,37.2,30.19,ENE,69,13.0,25.0,70,0.00,,,0.00,meteohub,2013-04-16 20:21:00,
2013-04-16 15:26:00,46.8,37.6,30.19,ENE,68,19.0,26.0,70,0.00,,,0.00,meteohub,2013-04-16 20:26:00,
2013-04-16 15:31:00,46.6,37.4,30.19,NE,44,18.0,26.0,70,0.00,,,0.00,meteohub,2013-04-16 20:31:00,
2013-04-16 15:36:00,46.2,37.0,30.20,ENE,62,12.0,26.0,70,0.00,,,0.00,meteohub,2013-04-16 20:36:00,
2013-04-16 15:41:00,46.2,37.4,30.19,ENE,63,14.0,24.0,71,0.00,,,0.00,meteohub,2013-04-16 20:41:00,
2013-04-16 15:46:00,46.6,37.4,30.19,East,92,19.0,26.0,70,0.00,,,0.00,meteohub,2013-04-16 20:46:00,
2013-04-16 15:51:00,46.4,37.6,30.19,ENE,67,20.0,27.0,71,0.00,,,0.00,meteohub,2013-04-16 20:51:00,
2013-04-16 15:56:00,46.0,37.2,30.19,ENE,75,14.0,27.0,71,0.00,,,0.00,meteohub,2013-04-16 20:56:00,
2013-04-16 16:01:00,46.2,37.4,30.18,ENE,70,20.0,27.0,71,0.00,,,0.00,meteohub,2013-04-16 21:01:00,
2013-04-16 16:06:00,46.2,37.8,30.19,ENE,63,23.0,25.0,72,0.00,,,0.00,meteohub,2013-04-16 21:06:00,
2013-04-16 16:11:00,46.2,37.8,30.18,ENE,70,11.0,27.0,72,0.00,,,0.00,meteohub,2013-04-16 21:11:00,
2013-04-16 16:16:00,46.9,37.6,30.18,ENE,63,14.0,29.0,70,0.00,,,0.00,meteohub,2013-04-16 21:16:00,
2013-04-16 16:21:00,47.1,37.8,30.19,ENE,68,15.0,29.0,70,0.00,,,0.00,meteohub,2013-04-16 21:21:00,
2013-04-16 16:26:00,46.9,38.1,30.19,ENE,62,12.0,24.0,71,0.00,,,0.00,meteohub,2013-04-16 21:26:00,
2013-04-16 16:31:00,46.8,37.9,30.18,ENE,62,20.0,24.0,71,0.00,,,0.00,meteohub,2013-04-16 21:31:00,
2013-04-16 16:36:00,46.6,37.8,30.18,ENE,68,21.0,24.0,71,0.00,,,0.00,meteohub,2013-04-16 21:36:00,
2013-04-16 16:41:00,46.4,37.9,30.19,NE,49,15.0,26.0,72,0.00,,,0.00,meteohub,2013-04-16 21:41:00,
2013-04-16 16:47:00,46.4,37.9,30.18,East,83,19.0,26.0,72,0.00,,,0.00,meteohub,2013-04-16 21:47:00,
2013-04-16 16:52:00,46.6,38.1,30.19,ENE,68,22.0,26.0,72,0.00,,,0.00,meteohub,2013-04-16 21:52:00,
2013-04-16 16:57:00,46.4,37.9,30.18,ENE,61,15.0,24.0,72,0.00,,,0.00,meteohub,2013-04-16 21:57:00,
2013-04-16 17:02:00,46.4,37.9,30.18,East,81,16.0,26.0,72,0.00,,,0.00,meteohub,2013-04-16 22:02:00,
2013-04-16 17:07:00,46.6,38.1,30.18,ENE,72,18.0,26.0,72,0.00,,,0.00,meteohub,2013-04-16 22:07:00,
2013-04-16 17:12:00,46.2,38.1,30.18,ENE,63,13.0,25.0,73,0.00,,,0.00,meteohub,2013-04-16 22:12:00,
2013-04-16 17:17:00,46.2,38.1,30.17,ENE,57,24.0,27.0,73,0.00,,,0.00,meteohub,2013-04-16 22:17:00,
2013-04-16 17:22:00,46.0,38.3,30.17,ENE,69,22.0,29.0,74,0.00,,,0.00,meteohub,2013-04-16 22:22:00,
2013-04-16 17:27:00,46.2,38.1,30.17,NE,56,12.0,29.0,73,0.00,,,0.00,meteohub,2013-04-16 22:27:00,
2013-04-16 17:32:00,46.4,38.3,30.17,NE,54,17.0,29.0,73,0.00,,,0.00,meteohub,2013-04-16 22:32:00,
2013-04-16 17:37:00,46.8,38.3,30.17,ENE,69,19.0,24.0,72,0.00,,,0.00,meteohub,2013-04-16 22:37:00,
2013-04-16 17:42:00,46.6,38.1,30.17,NE,56,17.0,24.0,72,0.00,,,0.00,meteohub,2013-04-16 22:42:00,
2013-04-16 17:47:00,46.4,37.9,30.17,ENE,77,17.0,25.0,72,0.00,,,0.00,meteohub,2013-04-16 22:47:00,
2013-04-16 17:52:00,46.6,38.1,30.18,ENE,72,16.0,26.0,72,0.00,,,0.00,meteohub,2013-04-16 22:52:00,
2013-04-16 17:57:00,46.8,38.3,30.17,ENE,69,15.0,26.0,72,0.00,,,0.00,meteohub,2013-04-16 22:57:00,
2013-04-16 18:02:00,46.8,38.3,30.17,NE,53,24.0,26.0,72,0.00,,,0.00,meteohub,2013-04-16 23:02:00,
2013-04-16 18:07:00,46.9,38.3,30.17,ENE,72,18.0,24.0,72,0.00,,,0.00,meteohub,2013-04-16 23:07:00,
2013-04-16 18:12:00,46.8,38.3,30.17,ENE,75,20.0,24.0,72,0.00,,,0.00,meteohub,2013-04-16 23:12:00,
2013-04-16 18:17:00,46.8,38.3,30.17,NE,54,18.0,24.0,72,0.00,,,0.00,meteohub,2013-04-16 23:17:00,
2013-04-16 18:22:00,46.6,38.1,30.18,ENE,70,11.0,22.0,72,0.00,,,0.00,meteohub,2013-04-16 23:22:00,
2013-04-16 18:27:00,46.6,38.5,30.17,ENE,59,18.0,22.0,73,0.00,,,0.00,meteohub,2013-04-16 23:27:00,
2013-04-16 18:32:00,46.6,38.5,30.17,ENE,77,20.0,23.0,73,0.00,,,0.00,meteohub,2013-04-16 23:32:00,
2013-04-16 18:37:00,46.4,38.3,30.17,ENE,69,17.0,24.0,73,0.00,,,0.00,meteohub,2013-04-16 23:37:00,
2013-04-16 18:42:00,46.2,38.1,30.18,East,81,16.0,24.0,73,0.00,,,0.00,meteohub,2013-04-16 23:42:00,
2013-04-16 18:47:00,46.0,37.9,30.18,ENE,59,17.0,24.0,73,0.00,,,0.00,meteohub,2013-04-16 23:47:00,
2013-04-16 18:52:00,46.2,38.5,30.17,ENE,61,13.0,24.0,74,0.00,,,0.00,meteohub,2013-04-16 23:52:00,
2013-04-16 18:57:00,46.4,38.3,30.17,ENE,68,12.0,24.0,73,0.00,,,0.00,meteohub,2013-04-16 23:57:00,
2013-04-16 19:02:00,46.2,38.1,30.17,ENE,63,17.0,22.0,73,0.00,,,0.00,meteohub,2013-04-17 00:02:00,
2013-04-16 19:07:00,46.2,38.1,30.17,ENE,65,17.0,22.0,73,0.00,,,0.00,meteohub,2013-04-17 00:07:00,
2013-04-16 19:12:00,46.2,38.5,30.17,ENE,65,9.0,22.0,74,0.00,,,0.00,meteohub,2013-04-17 00:12:00,
2013-04-16 19:17:00,46.0,38.8,30.17,ENE,67,17.0,22.0,76,0.00,,,0.00,meteohub,2013-04-17 00:17:00,
2013-04-16 19:22:00,46.0,38.8,30.17,East,80,16.0,21.0,76,0.00,,,0.00,meteohub,2013-04-17 00:22:00,
2013-04-16 19:27:00,45.9,39.0,30.18,NE,54,14.0,21.0,77,0.00,,,0.00,meteohub,2013-04-17 00:27:00,
2013-04-16 19:32:00,45.5,39.0,30.18,ENE,68,14.0,22.0,78,0.00,,,0.00,meteohub,2013-04-17 00:32:00,
2013-04-16 19:37:00,45.0,38.8,30.17,ENE,64,19.0,22.0,79,0.00,,,0.00,meteohub,2013-04-17 00:37:00,
2013-04-16 19:42:00,44.8,39.0,30.17,East,94,18.0,27.0,80,0.00,,,0.00,meteohub,2013-04-17 00:42:00,
2013-04-16 19:47:00,44.6,39.2,30.17,ENE,75,15.0,27.0,81,0.00,,,0.00,meteohub,2013-04-17 00:47:00,
2013-04-16 19:52:00,44.6,39.2,30.17,NE,54,19.0,27.0,81,0.00,,,0.00,meteohub,2013-04-17 00:52:00,
2013-04-16 19:57:00,44.6,39.2,30.17,ENE,63,13.0,27.0,81,0.00,,,0.00,meteohub,2013-04-17 00:57:00,
2013-04-16 20:02:00,44.4,39.0,30.16,NE,49,21.0,26.0,81,0.00,,,0.00,meteohub,2013-04-17 01:02:00,
2013-04-16 20:07:00,44.2,38.8,30.16,East,98,15.0,26.0,81,0.00,,,0.00,meteohub,2013-04-17 01:07:00,
2013-04-16 20:12:00,44.2,38.8,30.16,ENE,59,18.0,26.0,81,0.00,,,0.00,meteohub,2013-04-17 01:12:00,
2013-04-16 20:17:00,44.2,38.8,30.16,ENE,73,18.0,23.0,81,0.00,,,0.00,meteohub,2013-04-17 01:17:00,
2013-04-16 20:22:00,44.2,38.8,30.16,ENE,72,15.0,22.0,81,0.00,,,0.00,meteohub,2013-04-17 01:22:00,
2013-04-16 20:27:00,44.2,38.8,30.15,East,79,13.0,25.0,81,0.00,,,0.00,meteohub,2013-04-17 01:27:00,
2013-04-16 20:32:00,44.4,38.7,30.15,ENE,65,11.0,25.0,80,0.00,,,0.00,meteohub,2013-04-17 01:32:00,
2013-04-16 20:37:00,44.2,38.5,30.15,ENE,78,15.0,19.0,80,0.00,,,0.00,meteohub,2013-04-17 01:37:00,
2013-04-16 20:42:00,44.4,38.7,30.15,East,84,10.0,21.0,80,0.00,,,0.00,meteohub,2013-04-17 01:42:00,
2013-04-16 20:47:00,44.4,38.7,30.15,NE,52,9.0,21.0,80,0.00,,,0.00,meteohub,2013-04-17 01:47:00,
2013-04-16 20:52:00,44.4,39.0,30.15,ENE,61,19.0,19.0,81,0.00,,,0.00,meteohub,2013-04-17 01:52:00,
2013-04-16 20:57:00,44.1,38.8,30.16,ENE,67,20.0,22.0,82,0.00,,,0.00,meteohub,2013-04-17 01:57:00,
2013-04-16 21:02:00,43.9,39.0,30.16,ENE,70,21.0,26.0,83,0.00,,,0.00,meteohub,2013-04-17 02:02:00,
2013-04-16 21:07:00,43.9,39.0,30.17,ENE,71,18.0,26.0,83,0.00,,,0.00,meteohub,2013-04-17 02:07:00,
2013-04-16 21:12:00,43.9,39.0,30.17,ENE,68,12.0,26.0,83,0.00,,,0.00,meteohub,2013-04-17 02:12:00,
2013-04-16 21:17:00,44.1,39.2,30.17,NE,54,12.0,23.0,83,0.00,,,0.00,meteohub,2013-04-17 02:17:00,
2013-04-16 21:22:00,44.1,39.2,30.17,ENE,70,10.0,21.0,83,0.00,,,0.00,meteohub,2013-04-17 02:22:00,
2013-04-16 21:27:00,44.1,39.9,30.17,ENE,70,13.0,21.0,85,0.00,,,0.00,meteohub,2013-04-17 02:27:00,
2013-04-16 21:32:00,43.9,39.7,30.18,ENE,73,10.0,22.0,85,0.00,,,0.00,meteohub,2013-04-17 02:32:00,
2013-04-16 21:37:00,43.9,39.7,30.18,NE,47,14.0,22.0,85,0.00,,,0.00,meteohub,2013-04-17 02:37:00,
2013-04-16 21:42:00,43.7,39.7,30.18,ENE,71,16.0,22.0,86,0.00,,,0.00,meteohub,2013-04-17 02:42:00,
2013-04-16 21:47:00,43.5,39.6,30.18,NE,56,13.0,22.0,86,0.00,,,0.00,meteohub,2013-04-17 02:47:00,
2013-04-16 21:52:00,43.5,39.6,30.18,ENE,66,17.0,23.0,86,0.00,,,0.00,meteohub,2013-04-17 02:52:00,
2013-04-16 21:57:00,43.5,39.6,30.18,ENE,65,13.0,23.0,86,0.00,,,0.00,meteohub,2013-04-17 02:57:00,
2013-04-16 22:02:00,43.5,39.6,30.18,ENE,65,11.0,23.0,86,0.00,,,0.00,meteohub,2013-04-17 03:02:00,
2013-04-16 22:07:00,43.3,39.4,30.18,NE,56,14.0,22.0,86,0.00,,,0.00,meteohub,2013-04-17 03:07:00,
2013-04-16 22:12:00,43.3,39.4,30.18,ENE,70,18.0,20.0,86,0.00,,,0.00,meteohub,2013-04-17 03:12:00,
2013-04-16 22:17:00,43.3,39.4,30.18,NE,53,18.0,20.0,86,0.00,,,0.00,meteohub,2013-04-17 03:17:00,
2013-04-16 22:22:00,43.3,39.4,30.18,ENE,75,12.0,20.0,86,0.00,,,0.00,meteohub,2013-04-17 03:22:00,
2013-04-16 22:27:00,43.5,39.6,30.18,East,89,10.0,20.0,86,0.00,,,0.00,meteohub,2013-04-17 03:27:00,
2013-04-16 22:32:00,43.2,39.9,30.18,ENE,63,21.0,21.0,88,0.00,,,0.00,meteohub,2013-04-17 03:32:00,
2013-04-16 22:37:00,42.8,40.1,30.19,ENE,67,17.0,23.0,90,0.00,,,0.00,meteohub,2013-04-17 03:37:00,
2013-04-16 22:42:00,42.6,40.1,30.18,NE,51,14.0,23.0,91,0.00,,,0.00,meteohub,2013-04-17 03:42:00,
2013-04-16 22:47:00,42.4,40.3,30.19,ENE,59,8.0,23.0,92,0.00,,,0.00,meteohub,2013-04-17 03:47:00,
2013-04-16 22:52:00,42.4,40.3,30.18,East,80,9.0,20.0,92,0.00,,,0.00,meteohub,2013-04-17 03:52:00,
2013-04-16 22:57:00,42.4,40.6,30.19,NE,50,9.0,17.0,93,0.00,,,0.00,meteohub,2013-04-17 03:57:00,
2013-04-16 23:00:00,42.4,40.6,30.19,ENE,70,8.0,17.0,93,0.00,,,0.00,meteohub,2013-04-17 04:00:00,
2013-04-16 23:05:00,42.3,40.5,30.18,ENE,61,15.0,15.0,93,0.00,,,0.00,meteohub,2013-04-17 04:05:00,
2013-04-16 23:10:00,42.3,40.5,30.18,ENE,71,14.0,18.0,93,0.00,,,0.00,meteohub,2013-04-17 04:10:00,
2013-04-16 23:16:00,42.4,40.6,30.18,ENE,60,15.0,18.0,93,0.00,,,0.00,meteohub,2013-04-17 04:16:00,
2013-04-16 23:21:00,42.4,40.6,30.17,ENE,70,15.0,18.0,93,0.00,,,0.00,meteohub,2013-04-17 04:21:00,
2013-04-16 23:26:00,42.4,40.6,30.17,ENE,75,12.0,20.0,93,0.00,,,0.00,meteohub,2013-04-17 04:26:00,
2013-04-16 23:31:00,42.4,40.3,30.17,ENE,72,13.0,20.0,92,0.00,,,0.00,meteohub,2013-04-17 04:31:00,
2013-04-16 23:36:00,42.4,40.3,30.17,ENE,63,11.0,17.0,92,0.00,,,0.00,meteohub,2013-04-17 04:36:00,
2013-04-16 23:41:00,42.4,40.3,30.17,ENE,70,11.0,17.0,92,0.00,,,0.00,meteohub,2013-04-17 04:41:00,
2013-04-16 23:46:00,42.4,40.3,30.17,East,79,15.0,18.0,92,0.00,,,0.00,meteohub,2013-04-17 04:46:00,
2013-04-16 23:51:00,42.4,40.3,30.17,ENE,64,12.0,18.0,92,0.00,,,0.00,meteohub,2013-04-17 04:51:00,
2013-04-16 23:57:00,42.4,40.3,30.17,East,80,14.0,18.0,92,0.00,,,0.00,meteohub,2013-04-17 04:57:00,